Location: ?ern� Novina
(50.6762°N, 14.8696°E)
Time: 12:42:34
(UTC+00:00)

ATLAS CENTAUR R/B - Pass Details

Date: 03 March 2021
Orbit: 475 x 670 km, 64.7° (Epoch: 30 March)

Event Time Altitude Azimuth Distance (km) Brightness Sun altitude
Rises 19:59:20 0° 257° (WSW) 2,522 5.3 -30.5°
Reaches altitude 10° 20:01:45 10° 272° (W) 1,651 4.4 -30.8°
Enters shadow 20:03:16 18° 292° (WNW) 1,227 3.8 -31.0°
